MAU441 YPPH-FIMP

Flight info

Callsign MAU441
Flight time N/A
Altitude 34000
Route OPEGA1 OPEGA DCT 31S106E 30S100E 29S093E/N0478F360 27S087E 25S080E DCT SOLIT UT594 OKNEP/N0472F380 UT594 IMRUL IMRUL1E
Aircraft A339/H-V/N

Departure

Time 2026-04-30 18:30
Airport Perth International Airport (YPPH)

Arrival

Time N/A
Airport Sir Seewoosagur Ramgoolam International Airport (FIMP)
Time Latitude Longitude Altitude Speed Heading
2026-04-30 17:56 -31.93539 115.96111 75 ft 0 kts 300°
2026-04-30 18:20 -31.93547 115.96127 75 ft 2 kts 300°
2026-04-30 18:20 -31.93555 115.96143 75 ft 2 kts 300°
2026-04-30 18:20 -31.93563 115.96159 75 ft 2 kts 300°
2026-04-30 18:20 -31.93570 115.96174 74 ft 2 kts 300°
2026-04-30 18:21 -31.93579 115.96188 74 ft 2 kts 329°
2026-04-30 18:21 -31.93589 115.96192 74 ft 2 kts 348°
2026-04-30 18:21 -31.93604 115.96193 75 ft 0 kts 16°
2026-04-30 18:21 -31.93609 115.96191 75 ft 0 kts 17°
2026-04-30 18:24 -31.93608 115.96191 75 ft 0 kts 17°
2026-04-30 18:24 -31.93581 115.96201 74 ft 7 kts 16°
2026-04-30 18:25 -31.93542 115.96217 73 ft 10 kts 24°
2026-04-30 18:25 -31.93332 115.96318 70 ft 18 kts 11°
2026-04-30 18:25 -31.93201 115.96336 70 ft 19 kts 10°
2026-04-30 18:26 -31.93017 115.96506 64 ft 18 kts 49°
2026-04-30 18:26 -31.92887 115.96603 63 ft 13 kts 19°
2026-04-30 18:26 -31.92846 115.96670 63 ft 10 kts 88°
2026-04-30 18:27 -31.92851 115.96706 63 ft 0 kts 103°
2026-04-30 18:28 -31.92851 115.96710 63 ft 1 kts 103°
2026-04-30 18:28 -31.92907 115.96823 63 ft 10 kts 169°
2026-04-30 18:29 -31.92935 115.96824 63 ft 0 kts 188°
2026-04-30 18:29 -31.94008 115.96511 77 ft 129 kts 193°
2026-04-30 18:30 -31.95794 115.95980 392 ft 171 kts 192°
2026-04-30 18:30 -31.97981 115.95188 1607 ft 164 kts 196°
2026-04-30 18:31 -31.99493 115.94768 2187 ft 176 kts 191°
2026-04-30 18:31 -32.01536 115.93921 2647 ft 202 kts 222°
2026-04-30 18:32 -32.02395 115.90588 3193 ft 245 kts 275°
2026-04-30 18:32 -32.02117 115.88585 3617 ft 254 kts 275°
2026-04-30 18:32 -32.01577 115.84463 4914 ft 256 kts 275°
2026-04-30 18:33 -32.01307 115.82378 5541 ft 257 kts 275°
2026-04-30 18:33 -32.00680 115.77530 7033 ft 258 kts 275°
2026-04-30 18:33 -32.00406 115.75436 7599 ft 261 kts 275°
2026-04-30 18:34 -32.00131 115.73337 8183 ft 262 kts 274°
2026-04-30 18:34 -31.99655 115.69784 9172 ft 267 kts 278°
2026-04-30 18:34 -31.98971 115.67743 9661 ft 278 kts 295°
2026-04-30 18:35 -31.97302 115.65377 10357 ft 289 kts 307°
2026-04-30 18:35 -31.96359 115.64218 10550 ft 299 kts 307°
2026-04-30 18:35 -31.94863 115.62395 10812 ft 313 kts 308°
2026-04-30 18:36 -31.91171 115.57868 11415 ft 345 kts 308°
2026-04-30 18:36 -31.89489 115.55801 11901 ft 350 kts 308°
2026-04-30 18:36 -31.87111 115.52044 12882 ft 344 kts 291°
2026-04-30 18:37 -31.86026 115.48541 13676 ft 341 kts 281°
2026-04-30 18:37 -31.85409 115.45866 14243 ft 343 kts 281°
2026-04-30 18:37 -31.84997 115.44044 14604 ft 346 kts 281°
2026-04-30 18:37 -31.84171 115.40414 15286 ft 350 kts 281°
2026-04-30 18:38 -31.83746 115.38560 15561 ft 355 kts 281°
2026-04-30 18:38 -31.82877 115.34807 16192 ft 361 kts 281°
2026-04-30 18:38 -31.82208 115.31934 16732 ft 364 kts 281°
2026-04-30 18:38 -31.81541 115.29080 17242 ft 367 kts 281°
2026-04-30 18:39 -31.80930 115.26156 17740 ft 369 kts 278°
2026-04-30 18:39 -31.80417 115.23181 18240 ft 372 kts 277°
2026-04-30 18:39 -31.79919 115.20237 18753 ft 375 kts 277°
2026-04-30 18:39 -31.79577 115.18217 19085 ft 377 kts 277°
2026-04-30 18:40 -31.79064 115.15184 19588 ft 380 kts 277°
2026-04-30 18:40 -31.78548 115.12136 20092 ft 382 kts 277°
2026-04-30 18:40 -31.78026 115.09065 20542 ft 386 kts 277°
2026-04-30 18:40 -31.77504 115.05987 20972 ft 389 kts 277°
2026-04-30 18:41 -31.76973 115.02858 21402 ft 392 kts 277°
2026-04-30 18:41 -31.76436 114.99704 21820 ft 396 kts 277°
2026-04-30 18:41 -31.75890 114.96510 22256 ft 398 kts 278°
2026-04-30 18:41 -31.75349 114.93351 22664 ft 401 kts 278°
2026-04-30 18:42 -31.74797 114.90131 23056 ft 404 kts 278°
2026-04-30 18:42 -31.73672 114.83627 23839 ft 409 kts 278°
2026-04-30 18:42 -31.73108 114.80374 24259 ft 411 kts 278°
2026-04-30 18:45 -31.67270 114.46849 27833 ft 429 kts 278°
2026-04-30 18:45 -31.66670 114.43421 28151 ft 431 kts 278°
2026-04-30 18:45 -31.66067 114.39998 28451 ft 432 kts 278°
2026-04-30 18:46 -31.65254 114.35377 28865 ft 433 kts 278°
2026-04-30 18:46 -31.64642 114.31918 29169 ft 435 kts 278°
2026-04-30 18:46 -31.64030 114.28457 29478 ft 436 kts 278°
2026-04-30 18:46 -31.63619 114.26138 29659 ft 438 kts 278°
2026-04-30 18:47 -31.62795 114.21502 30096 ft 439 kts 278°
2026-04-30 18:47 -31.62374 114.19132 30320 ft 438 kts 278°
2026-04-30 18:47 -31.61557 114.14531 30840 ft 436 kts 278°
2026-04-30 18:47 -31.61144 114.12221 31090 ft 434 kts 278°
2026-04-30 18:48 -31.60321 114.07597 31564 ft 431 kts 278°
2026-04-30 18:48 -31.59921 114.05360 31854 ft 428 kts 278°
2026-04-30 18:48 -31.59312 114.01960 32264 ft 425 kts 278°
2026-04-30 18:48 -31.58707 113.98586 32596 ft 424 kts 278°
2026-04-30 18:49 -31.58102 113.95210 32871 ft 425 kts 278°
2026-04-30 18:49 -31.57487 113.91791 33048 ft 426 kts 278°
2026-04-30 18:49 -31.56878 113.88415 33348 ft 426 kts 278°
2026-04-30 18:49 -31.56270 113.85042 33500 ft 427 kts 278°
2026-04-30 18:50 -31.55450 113.80496 33857 ft 427 kts 278°
2026-04-30 18:50 -31.55041 113.78239 33991 ft 427 kts 278°
2026-04-30 18:50 -31.54229 113.73749 34170 ft 427 kts 278°
2026-04-30 18:51 -31.53196 113.68069 34215 ft 428 kts 278°
2026-04-30 18:51 -31.51957 113.61261 34175 ft 427 kts 278°
2026-04-30 18:52 -31.50720 113.54492 34147 ft 428 kts 278°
2026-04-30 18:52 -31.49481 113.47716 34202 ft 426 kts 278°
2026-04-30 18:53 -31.48284 113.40906 34214 ft 426 kts 276°
2026-04-30 18:53 -31.47566 113.34074 34194 ft 425 kts 271°
2026-04-30 18:54 -31.47274 113.27156 34209 ft 426 kts 270°
2026-04-30 18:54 -31.47016 113.20270 34197 ft 426 kts 270°
2026-04-30 18:55 -31.46755 113.13330 34210 ft 426 kts 270°
2026-04-30 18:55 -31.46355 113.02921 34212 ft 428 kts 270°
2026-04-30 18:56 -31.45953 112.92562 34166 ft 427 kts 270°
2026-04-30 18:57 -31.45540 112.82166 34180 ft 427 kts 270°
2026-04-30 18:57 -31.45262 112.75292 34251 ft 427 kts 270°
2026-04-30 18:58 -31.44836 112.64883 34201 ft 427 kts 270°
2026-04-30 18:59 -31.44351 112.53346 34231 ft 429 kts 270°
2026-04-30 19:00 -31.43808 112.40607 34218 ft 430 kts 270°
2026-04-30 19:01 -31.43197 112.26668 34171 ft 427 kts 271°
2026-04-30 19:02 -31.42729 112.16317 34201 ft 429 kts 270°
2026-04-30 19:03 -31.42092 112.02411 34226 ft 432 kts 270°
2026-04-30 19:04 -31.41441 111.88464 34256 ft 429 kts 270°
2026-04-30 19:05 -31.40772 111.74552 34203 ft 430 kts 271°
2026-04-30 19:06 -31.40092 111.60649 34214 ft 431 kts 270°
2026-04-30 19:06 -31.39568 111.50174 34215 ft 431 kts 270°
2026-04-30 19:07 -31.39035 111.39747 34252 ft 432 kts 270°
2026-04-30 19:08 -31.38312 111.25758 34262 ft 432 kts 271°
2026-04-30 19:09 -31.37759 111.15241 34232 ft 432 kts 271°
2026-04-30 19:09 -31.37386 111.08273 34236 ft 432 kts 271°
2026-04-30 19:10 -31.36630 110.94285 34258 ft 428 kts 271°
2026-04-30 19:11 -31.35988 110.82710 34269 ft 431 kts 271°
2026-04-30 19:12 -31.35663 110.76889 34253 ft 432 kts 271°
2026-04-30 19:12 -31.35268 110.69894 34261 ft 433 kts 271°
2026-04-30 19:13 -31.34470 110.55913 34257 ft 431 kts 271°
2026-04-30 19:14 -31.33990 110.47734 34270 ft 434 kts 271°
2026-04-30 19:14 -31.33650 110.41914 34259 ft 433 kts 271°
2026-04-30 19:15 -31.33238 110.34911 34253 ft 430 kts 272°
2026-04-30 19:15 -31.32612 110.24450 34273 ft 429 kts 272°
2026-04-30 19:16 -31.32191 110.17512 34270 ft 429 kts 272°
2026-04-30 19:17 -31.31552 110.07089 34272 ft 430 kts 272°
2026-04-30 19:17 -31.30901 109.96627 34275 ft 433 kts 272°
2026-04-30 19:18 -31.30243 109.86124 34262 ft 432 kts 272°
2026-04-30 19:19 -31.29804 109.79180 34271 ft 430 kts 272°
2026-04-30 19:19 -31.29133 109.68756 34271 ft 432 kts 272°
2026-04-30 19:20 -31.28605 109.60628 34288 ft 433 kts 272°
2026-04-30 19:21 -31.27997 109.51326 34288 ft 430 kts 272°
2026-04-30 19:22 -31.27068 109.37350 34282 ft 433 kts 272°
2026-04-30 19:23 -31.25643 109.16377 34286 ft 431 kts 272°
2026-04-30 19:24 -31.24918 109.05897 34286 ft 432 kts 272°
2026-04-30 19:25 -31.23695 108.88450 34284 ft 433 kts 272°
2026-04-30 19:26 -31.22699 108.74504 34296 ft 432 kts 272°
2026-04-30 19:27 -31.21935 108.63964 34295 ft 434 kts 273°
2026-04-30 19:28 -31.21166 108.53482 34294 ft 433 kts 272°
2026-04-30 19:29 -31.20132 108.39531 34305 ft 434 kts 272°
2026-04-30 19:30 -31.19079 108.25528 34306 ft 433 kts 273°
2026-04-30 19:31 -31.18010 108.11554 34308 ft 432 kts 273°
2026-04-30 19:31 -31.17202 108.01105 34307 ft 433 kts 273°
2026-04-30 19:32 -31.16655 107.94102 34301 ft 434 kts 273°
2026-04-30 19:32 -31.16106 107.87102 34308 ft 433 kts 273°
2026-04-30 19:33 -31.15551 107.80087 34301 ft 434 kts 273°
2026-04-30 19:33 -31.14994 107.73099 34330 ft 435 kts 273°
2026-04-30 19:34 -31.14338 107.64928 34309 ft 435 kts 273°
2026-04-30 19:35 -31.13583 107.55612 34326 ft 434 kts 273°
2026-04-30 19:35 -31.13009 107.48579 34320 ft 436 kts 273°
2026-04-30 19:36 -31.12433 107.41552 34303 ft 435 kts 273°
2026-04-30 19:36 -31.11566 107.31098 34258 ft 435 kts 274°
2026-04-30 19:37 -31.10985 107.24131 34300 ft 434 kts 274°
2026-04-30 19:37 -31.10395 107.17108 34322 ft 435 kts 274°
2026-04-30 19:38 -31.09804 107.10129 34292 ft 437 kts 274°
2026-04-30 19:38 -31.09202 107.03072 34299 ft 435 kts 274°
2026-04-30 19:39 -31.08606 106.96126 34333 ft 434 kts 274°
2026-04-30 19:39 -31.08003 106.89112 34327 ft 434 kts 274°
2026-04-30 19:40 -31.07398 106.82145 34342 ft 435 kts 274°
2026-04-30 19:40 -31.06784 106.75102 34327 ft 435 kts 274°
2026-04-30 19:41 -31.06171 106.68148 34320 ft 433 kts 274°
2026-04-30 19:41 -31.05552 106.61157 34350 ft 433 kts 274°
2026-04-30 19:42 -31.04931 106.54167 34309 ft 434 kts 274°
2026-04-30 19:42 -31.04310 106.47224 34312 ft 432 kts 274°
2026-04-30 19:43 -31.03681 106.40266 34317 ft 428 kts 274°
2026-04-30 19:44 -31.02743 106.29896 34317 ft 434 kts 274°
2026-04-30 19:44 -31.02108 106.22947 34299 ft 433 kts 274°
2026-04-30 19:45 -31.01468 106.15968 34338 ft 435 kts 274°
2026-04-30 19:45 -31.00824 106.09010 34293 ft 430 kts 274°
2026-04-30 19:46 -31.00184 106.02132 34321 ft 427 kts 274°
2026-04-30 19:46 -30.99307 105.95277 34334 ft 430 kts 277°
2026-04-30 19:47 -30.98325 105.88419 34303 ft 433 kts 277°
2026-04-30 19:47 -30.97336 105.81567 34312 ft 428 kts 277°
2026-04-30 19:48 -30.96357 105.74788 34308 ft 424 kts 277°
2026-04-30 19:48 -30.95380 105.67989 34360 ft 430 kts 277°
2026-04-30 19:49 -30.94386 105.61140 34343 ft 430 kts 277°
2026-04-30 19:49 -30.92724 105.49737 34351 ft 430 kts 277°
2026-04-30 19:50 -30.91888 105.44026 34281 ft 430 kts 277°
2026-04-30 19:50 -30.90898 105.37322 34345 ft 421 kts 277°
2026-04-30 19:51 -30.89903 105.30541 34324 ft 429 kts 277°
2026-04-30 19:51 -30.88903 105.23804 34309 ft 422 kts 277°
2026-04-30 19:52 -30.87907 105.17095 34318 ft 422 kts 277°
2026-04-30 19:52 -30.86911 105.10410 34340 ft 421 kts 277°
2026-04-30 19:53 -30.85915 105.03757 34346 ft 420 kts 277°
2026-04-30 19:53 -30.84906 104.97041 34333 ft 423 kts 277°
2026-04-30 19:54 -30.83895 104.90331 34364 ft 422 kts 277°
2026-04-30 19:54 -30.82869 104.83543 34331 ft 425 kts 277°
2026-04-30 19:55 -30.81854 104.76875 34344 ft 421 kts 277°
2026-04-30 19:55 -30.80838 104.70214 34344 ft 417 kts 277°
2026-04-30 19:56 -30.79821 104.63560 34333 ft 415 kts 277°
2026-04-30 19:56 -30.78808 104.56963 34325 ft 418 kts 277°
2026-04-30 19:57 -30.77787 104.50316 34327 ft 419 kts 277°
2026-04-30 19:57 -30.76765 104.43709 34332 ft 417 kts 277°
2026-04-30 19:58 -30.75749 104.37161 34356 ft 415 kts 277°
2026-04-30 19:58 -30.74722 104.30554 34353 ft 418 kts 278°
2026-04-30 19:59 -30.73688 104.23934 34341 ft 417 kts 278°
2026-04-30 20:00 -30.72133 104.14007 34340 ft 418 kts 278°
2026-04-30 20:00 -30.71096 104.07439 34350 ft 416 kts 278°
2026-04-30 20:01 -30.69522 103.97487 34327 ft 415 kts 278°
2026-04-30 20:01 -30.68480 103.90920 34346 ft 418 kts 278°
2026-04-30 20:02 -30.66903 103.81049 34337 ft 414 kts 277°
2026-04-30 20:03 -30.65330 103.71239 34355 ft 411 kts 278°
2026-04-30 20:03 -30.64281 103.64691 34342 ft 416 kts 278°
2026-04-30 20:04 -30.63217 103.58123 34333 ft 415 kts 278°
2026-04-30 20:05 -30.61628 103.48338 34339 ft 412 kts 278°
2026-04-30 20:05 -30.60037 103.38582 34332 ft 409 kts 277°
2026-04-30 20:06 -30.58977 103.32095 34342 ft 411 kts 278°
2026-04-30 20:06 -30.57907 103.25597 34347 ft 409 kts 278°
2026-04-30 20:07 -30.56849 103.19156 34356 ft 408 kts 278°
2026-04-30 20:08 -30.55254 103.09507 34345 ft 410 kts 278°
2026-04-30 20:08 -30.54175 103.03021 34356 ft 411 kts 278°
2026-04-30 20:09 -30.53100 102.96568 34351 ft 404 kts 278°
2026-04-30 20:09 -30.51496 102.86955 34365 ft 410 kts 278°
2026-04-30 20:10 -30.49862 102.77230 34330 ft 410 kts 279°
2026-04-30 20:11 -30.48244 102.67649 34369 ft 407 kts 279°
2026-04-30 20:11 -30.47144 102.61194 34355 ft 408 kts 279°
2026-04-30 20:12 -30.45505 102.51574 34360 ft 406 kts 278°
2026-04-30 20:13 -30.44423 102.45215 34356 ft 408 kts 278°
2026-04-30 20:13 -30.43315 102.38760 34375 ft 409 kts 278°
2026-04-30 20:14 -30.42214 102.32336 34343 ft 407 kts 279°
2026-04-30 20:14 -30.41109 102.25929 34361 ft 405 kts 279°
2026-04-30 20:15 -30.40004 102.19550 34342 ft 408 kts 279°
2026-04-30 20:15 -30.38897 102.13161 34375 ft 406 kts 279°
2026-04-30 20:16 -30.37778 102.06725 34362 ft 408 kts 280°
2026-04-30 20:16 -30.36654 102.00316 34363 ft 408 kts 279°
2026-04-30 20:17 -30.35528 101.93877 34371 ft 410 kts 279°
2026-04-30 20:17 -30.34395 101.87425 34356 ft 411 kts 279°
2026-04-30 20:18 -30.33256 101.80974 34359 ft 407 kts 279°
2026-04-30 20:18 -30.32130 101.74581 34354 ft 408 kts 279°
2026-04-30 20:19 -30.30990 101.68145 34350 ft 410 kts 279°
2026-04-30 20:19 -30.29847 101.61729 34355 ft 408 kts 279°
2026-04-30 20:20 -30.28701 101.55307 34355 ft 408 kts 279°
2026-04-30 20:20 -30.27554 101.48886 34350 ft 408 kts 279°
2026-04-30 20:21 -30.26401 101.42435 34346 ft 412 kts 279°
2026-04-30 20:21 -30.25249 101.36024 34357 ft 408 kts 279°
2026-04-30 20:22 -30.24086 101.29563 34349 ft 410 kts 280°
2026-04-30 20:22 -30.22922 101.23150 34357 ft 409 kts 279°
2026-04-30 20:23 -30.21765 101.16761 34354 ft 411 kts 280°
2026-04-30 20:23 -30.20587 101.10284 34357 ft 413 kts 280°
2026-04-30 20:24 -30.19408 101.03833 34357 ft 412 kts 280°
2026-04-30 20:24 -30.18221 100.97344 34352 ft 410 kts 280°
2026-04-30 20:25 -30.16447 100.87689 34348 ft 414 kts 280°
2026-04-30 20:26 -30.14653 100.77970 34352 ft 412 kts 281°
2026-04-30 20:26 -30.12860 100.68285 34353 ft 412 kts 280°
2026-04-30 20:27 -30.10442 100.55322 34342 ft 414 kts 280°
2026-04-30 20:28 -30.08015 100.42362 34325 ft 415 kts 280°
2026-04-30 20:30 -30.04958 100.26125 34337 ft 416 kts 281°
2026-04-30 20:31 -30.01257 100.06614 34380 ft 418 kts 281°
2026-04-30 20:32 -29.98859 99.90224 34325 ft 416 kts 277°
2026-04-30 20:33 -29.97699 99.80333 34338 ft 416 kts 277°
2026-04-30 20:34 -29.96539 99.70460 34339 ft 417 kts 277°
2026-04-30 20:35 -29.95368 99.60548 34333 ft 416 kts 277°
2026-04-30 20:35 -29.94200 99.50697 34344 ft 415 kts 278°
2026-04-30 20:36 -29.93406 99.44068 34343 ft 418 kts 277°
2026-04-30 20:37 -29.92224 99.34209 34349 ft 419 kts 278°
2026-04-30 20:37 -29.91419 99.27557 34341 ft 419 kts 278°
2026-04-30 20:38 -29.90617 99.20952 34335 ft 416 kts 278°
2026-04-30 20:38 -29.89820 99.14398 34343 ft 416 kts 278°
2026-04-30 20:39 -29.88600 99.04435 34335 ft 422 kts 278°
2026-04-30 20:40 -29.87369 98.94447 34338 ft 422 kts 278°
2026-04-30 20:40 -29.86549 98.87825 34345 ft 420 kts 278°
2026-04-30 20:41 -29.85305 98.77823 34331 ft 421 kts 278°
2026-04-30 20:41 -29.84483 98.71258 34326 ft 419 kts 278°
2026-04-30 20:42 -29.83640 98.64568 34345 ft 424 kts 278°
2026-04-30 20:43 -29.82383 98.54610 34345 ft 421 kts 278°
2026-04-30 20:43 -29.81535 98.47906 34329 ft 425 kts 278°
2026-04-30 20:44 -29.80249 98.37839 34334 ft 426 kts 278°
2026-04-30 20:45 -29.78527 98.24454 34316 ft 423 kts 278°
2026-04-30 20:45 -29.77667 98.17797 34316 ft 423 kts 278°
2026-04-30 20:46 -29.75932 98.04472 34320 ft 425 kts 279°
2026-04-30 20:47 -29.74615 97.94412 34325 ft 427 kts 278°
2026-04-30 20:48 -29.73281 97.84311 34326 ft 430 kts 278°
2026-04-30 20:48 -29.72385 97.77518 34319 ft 429 kts 278°
2026-04-30 20:49 -29.71484 97.70757 34313 ft 429 kts 278°
2026-04-30 20:50 -29.70134 97.60664 34316 ft 427 kts 279°
2026-04-30 20:50 -29.69230 97.53950 34307 ft 428 kts 279°
2026-04-30 20:51 -29.68320 97.47202 34311 ft 427 kts 279°
2026-04-30 20:51 -29.66945 97.37064 34317 ft 429 kts 278°
2026-04-30 20:52 -29.66033 97.30340 34313 ft 427 kts 279°
2026-04-30 20:53 -29.64650 97.20247 34313 ft 428 kts 279°
2026-04-30 20:53 -29.63718 97.13468 34313 ft 428 kts 279°
2026-04-30 20:54 -29.62316 97.03335 34316 ft 430 kts 279°
2026-04-30 20:55 -29.60909 96.93211 34311 ft 430 kts 279°
2026-04-30 20:55 -29.59970 96.86480 34310 ft 430 kts 279°
2026-04-30 20:56 -29.58542 96.76303 34310 ft 431 kts 279°
2026-04-30 20:57 -29.57108 96.66148 34309 ft 430 kts 279°
2026-04-30 20:57 -29.56149 96.59380 34308 ft 430 kts 279°
2026-04-30 20:58 -29.54701 96.49222 34303 ft 432 kts 279°
2026-04-30 20:58 -29.53732 96.42458 34294 ft 432 kts 279°
2026-04-30 20:59 -29.52264 96.32247 34298 ft 432 kts 280°
2026-04-30 21:00 -29.50305 96.18710 34288 ft 433 kts 280°
2026-04-30 21:01 -29.48818 96.08521 34295 ft 433 kts 280°
2026-04-30 21:02 -29.47324 95.98298 34282 ft 434 kts 280°
2026-04-30 21:02 -29.46326 95.91519 34285 ft 434 kts 280°
2026-04-30 21:03 -29.45319 95.84704 34298 ft 433 kts 280°
2026-04-30 21:03 -29.44309 95.77898 34300 ft 433 kts 280°
2026-04-30 21:04 -29.43298 95.71104 34299 ft 433 kts 280°
2026-04-30 21:04 -29.41787 95.60983 34299 ft 432 kts 281°
2026-04-30 21:05 -29.40767 95.54195 34299 ft 432 kts 280°
2026-04-30 21:05 -29.40089 95.49675 34298 ft 432 kts 281°